Prescott, AZ

3:22 AM MST on May 28, 2018 (GMT -0700)
Love

Weather History for KPRC - September, 2014

Change the Weather History Date:

Wednesday, September 3, 2014

  Actual Average Record
Temperature  
Mean Temperature 73 °F 71 °F  
Max Temperature 88 °F 85 °F 97 °F (1948)
Min Temperature 57 °F 58 °F 44 °F (1961)
Degree Days  
Heating Degree Days 0    
Month to date heating degree days 0  
Since 1 July heating degree days 3  
Cooling Degree Days 8    
Month to date cooling degree days 22  
Year to date cooling degree days 916  
Growing Degree Days 22 (Base 50)    
Moisture  
Dew Point 41 °F    
Average Humidity 33    
Maximum Humidity 57    
Minimum Humidity 17    
Precipitation  
Precipitation 0.00 in 0.07 in 1.12 in (1970)
Month to date precipitation 0.00 0.20  
Year to date precipitation 7.47 9.86  
Sea Level Pressure  
Sea Level Pressure 29.77 in    
Wind  
Wind Speed 8 mph (SSW)    
Max Wind Speed 18 mph    
Max Gust Speed 24 mph    
Visibility 10 miles    
Events      
T = Trace of Precipitation, MM = Missing Value Source: NWS Daily Summary

Daily Weather History Graph

Daily Weather History Graph

Search for Another Location

Airport or City:

Astronomy

Sep. 03, 2014 Rise Set
Actual Time 6:04 AM MST 6:53 PM MST
Civil Twilight 5:38 AM MST 7:18 PM MST
Nautical Twilight 5:08 AM MST 7:49 PM MST
Astronomical Twilight 4:37 AM MST 8:20 PM MST
Moon 2:31 PM MST (9/3) 12:09 AM MST (9/3)
Length of Visible Light 13h 40m
Length of Day
12h 49m
Waxing Gibbous, 65% of the Moon is Illuminated
Sep 3
Waxing Gibbous
Sep 8
Full
Sep 15
Last Quarter
Sep 23
New
Oct 1
First Quarter

Hourly Weather History & Observations

Time (MST) Temp. Dew Point Humidity Pressure Visibility Wind Dir Wind Speed Gust Speed Precip Events Conditions
12:53 AM 64.0 °F 39.0 °F 40% 29.78 in 10.0 mi SSW 8.1 mph - N/A   Clear
1:53 AM 63.0 °F 39.0 °F 41% 29.78 in 10.0 mi SSW 9.2 mph - N/A   Clear
2:53 AM 62.1 °F 39.9 °F 44% 29.78 in 10.0 mi South 10.4 mph - N/A   Clear
3:53 AM 57.9 °F 42.1 °F 56% 29.78 in 10.0 mi South 6.9 mph - N/A   Clear
4:53 AM 57.9 °F 41.0 °F 53% 29.79 in 10.0 mi SSW 9.2 mph - N/A   Clear
5:53 AM 57.9 °F 39.9 °F 51% 29.80 in 10.0 mi SSW 10.4 mph - N/A   Clear
6:53 AM 61.0 °F 41.0 °F 48% 29.82 in 10.0 mi South 9.2 mph - N/A   Clear
7:53 AM 71.1 °F 46.0 °F 41% 29.83 in 10.0 mi Calm Calm - N/A   Clear
8:53 AM 77.0 °F 48.0 °F 36% 29.82 in 10.0 mi ESE 3.5 mph - N/A   Clear
9:53 AM 81.0 °F 41.0 °F 24% 29.82 in 10.0 mi Variable 5.8 mph - N/A   Clear
10:53 AM 82.9 °F 41.0 °F 23% 29.80 in 10.0 mi SE 9.2 mph - N/A   Clear
11:53 AM 84.0 °F 44.1 °F 25% 29.78 in 10.0 mi Variable 5.8 mph - N/A   Clear
12:36 PM 88.0 °F 39.9 °F 18% 30.02 in 10.0 mi WSW 11.5 mph 21.9 mph N/A   Clear
12:53 PM 88.0 °F 39.9 °F 18% 29.76 in 10.0 mi WSW 13.8 mph 21.9 mph N/A   Clear
1:53 PM 87.1 °F 39.0 °F 18% 29.75 in 10.0 mi SW 11.5 mph - N/A   Clear
2:53 PM 87.1 °F 37.9 °F 18% 29.72 in 10.0 mi SW 13.8 mph 19.6 mph N/A   Clear
3:53 PM 87.1 °F 37.0 °F 17% 29.72 in 10.0 mi SSW 12.7 mph 18.4 mph N/A   Clear
4:53 PM 86.0 °F 39.0 °F 19% 29.72 in 10.0 mi SW 9.2 mph 17.3 mph N/A   Clear
5:53 PM 84.0 °F 37.9 °F 19% 29.73 in 10.0 mi SSW 6.9 mph - N/A   Clear
6:53 PM 80.1 °F 39.0 °F 23% 29.72 in 10.0 mi SW 4.6 mph - N/A   Clear
7:53 PM 73.9 °F 41.0 °F 30% 29.73 in 10.0 mi South 4.6 mph - N/A   Clear
8:53 PM 71.1 °F 43.0 °F 36% 29.74 in 10.0 mi SSW 6.9 mph - N/A   Clear
9:53 PM 69.1 °F 42.1 °F 38% 29.74 in 10.0 mi SSW 8.1 mph - N/A   Clear
10:53 PM 68.0 °F 43.0 °F 40% 29.72 in 10.0 mi SSW 8.1 mph - N/A   Clear
11:53 PM 64.9 °F 45.0 °F 48% 29.72 in 10.0 mi South 8.1 mph - N/A   Clear